User: anonymous   Login
Location: Azul
(36.7830°S, 59.8500°W)
Time: 09:33:23
(UTC-03:00)
Language:

YUBILEINY - Orbit

View from above orbital plane
View from above orbital plane
View from above satellite
View from above satellite

Ground track
Ground track

The orbit data is extracted from the following two-line orbital elements,

1 32953U 08025A   21295.14969740  .00000021  00000-0  80971-4 0  9998
2 32953  82.5052 332.1436 0020536  63.2999 297.0185 12.43105086608727
Epoch (UTC): 22 October 2021 03:35:33
Eccentricity: 0.0020536
inclination: 82.5052°
perigee height: 1477 km
apogee height: 1509 km
right ascension of ascending node: 332.1436°
argument of perigee: 63.2999°
revolutions per day: 12.43105086
mean anomaly at epoch: 297.0185°
orbit number at epoch: 60872

The dashed part of the orbit path shows where the satellite is in the earth's shadow,  

DLR